Flag for U.S.A. Weather past 2 weeks in Dallas, Texas, U.S.A.

Now
60 °F

Overcast.


Feels Like: 60 °F
Forecast: 62 / 82 °F
Wind: No wind

Location: Dallas Love Field

Current Time: Apr 19, 2015 at 12:45:26 AM

Latest Report: Apr 18, 2015 at 11:53 PM


Visibility: 10 mi

Pressure: 29.75 "Hg

Humidity: 86%

Dew point: 56 °F

Location of DallasLocation

Historic Weather in Dallas — Graph

°F

Dallas temperature yesterday

Maximum temperature yesterday: 79 °F (at 2:53 PM)
Minimum temperature yesterday: 59 °F (at 8:53 PM)
Average temperature yesterday: 69 °F

Past Weeks' High & Low Weather Summary

 TemperatureHumidityPressure
High84 °F (Apr 9, 5:53 PM)97% (Apr 5, 8:53 PM)30.40 "Hg (Apr 5, 8:53 PM)
Low50 °F (Apr 4, 6:53 AM)24% (Apr 4, 5:53 PM)29.71 "Hg (Apr 18, 6:53 PM)
Average67 °F71%29.96 "Hg
* Reported Apr 3 10:53 PM — Apr 18 10:53 PM, Dallas, Weather by CustomWeather, © 2015

Note: Actual official high and low records may vary slightly from our data, if they occured in-between our weather recording intervals... More about our weather records

Advertising

Dallas weather history for previous 24 hours

 ConditionsComfort  
Time TempWeatherWind HumidityBarometerVisibility
10:53 PM
Sat, Apr 18
61 °FOvercast.10 mph81%29.73 "Hg10 mi
10:03 PM60 °FThunderstorms. Fog.6 mph90%29.85 "Hg4 mi
9:53 PM60 °FThunderstorms. Fog.5 mph90%29.85 "Hg2 mi
8:53 PM59 °FThunderstorms. Fog.18 mph87%29.87 "Hg3 mi
7:53 PM77 °FPartly sunny.8 mph58%29.74 "Hg10 mi
6:53 PM78 °FBroken clouds.10 mph56%29.71 "Hg10 mi
5:53 PM79 °FBroken clouds.10 mph54%29.72 "Hg9 mi
4:53 PM79 °FScattered clouds.10 mph54%29.73 "Hg10 mi
3:53 PM79 °FScattered clouds.3 mph52%29.76 "Hg10 mi
2:53 PM79 °FScattered clouds.No wind56%29.79 "Hg10 mi
1:53 PM78 °FBroken clouds.No wind58%29.81 "Hg10 mi
12:53 PM76 °FPartly sunny.3 mph62%29.85 "Hg10 mi
11:53 AM76 °FScattered clouds.No wind60%29.88 "Hg10 mi
10:53 AM74 °FScattered clouds.7 mph64%29.89 "Hg10 mi
9:53 AM70 °FPassing clouds.No wind76%29.89 "Hg10 mi
8:53 AM66 °FScattered clouds.3 mph81%29.88 "Hg10 mi
7:53 AM63 °FPassing clouds.No wind90%29.87 "Hg10 mi
6:53 AM62 °FPassing clouds.3 mph93%29.88 "Hg8 mi
5:53 AM63 °FPassing clouds.No wind90%29.87 "Hg10 mi
4:53 AM63 °FPartly cloudy.No wind90%29.87 "Hg10 mi
3:53 AM63 °FPassing clouds.6 mph93%29.88 "Hg10 mi
2:53 AM64 °FMostly cloudy.3 mph94%29.91 "Hg10 mi
1:53 AM64 °FMostly cloudy.No wind94%29.93 "Hg10 mi
12:53 AM64 °FMostly cloudy.3 mph94%29.93 "Hg10 mi
Weather by CustomWeather, © 2015

See weather overviewHow to use our weather pages